Cross City, FL

6:29 PM EDT on September 24, 2017 (GMT -0400)
Cross City

Weather History for KCTY - January, 2014

Change the Weather History Date:

Friday, January 3, 2014

  Actual Average Record
Temperature  
Mean Temperature 38 °F 52 °F  
Max Temperature 47 °F 65 °F 81 °F (2015)
Min Temperature 28 °F 40 °F 19 °F (2001)
Degree Days  
Heating Degree Days 27 13  
Month to date heating degree days 46 39  
Since 1 July heating degree days 361 544  
Cooling Degree Days 0 0  
Month to date cooling degree days 0 0  
Year to date cooling degree days 0 0  
Moisture  
Dew Point 24 °F    
Average Humidity 56    
Maximum Humidity 78    
Minimum Humidity 37    
Precipitation  
Precipitation 0.00 in 0.12 in 0.34 in (2016)
Month to date precipitation 1.86 0.35  
Year to date precipitation 1.86 0.35  
Sea Level Pressure  
Sea Level Pressure 30.24 in    
Wind  
Wind Speed 10 mph (NNE)    
Max Wind Speed 23 mph    
Max Gust Speed 31 mph    
T = Trace of Precipitation, MM = Missing Value Source: NWS Daily Summary

Daily Weather History Graph

Daily Weather History Graph

Search for Another Location

Airport or City:

Trip Planner

Search our weather history database for the weather conditions in past years. The results will help you decide how hot, cold, wet, or windy it might be!

Date:

Astronomy

Jan. 03, 2014 Rise Set
Actual Time 7:27 AM EST 5:46 PM EST
Civil Twilight 7:01 AM EST 6:12 PM EST
Nautical Twilight 6:32 AM EST 6:41 PM EST
Astronomical Twilight 6:03 AM EST 7:10 PM EST
Moon 9:05 AM EST (1/3) 8:39 PM EST (1/3)
Length of Visible Light 11h 10m
Length of Day
10h 18m
Waxing Crescent, 8% of the Moon is Illuminated
Jan 3
Waxing Crescent
Jan 7
First Quarter
Jan 15
Full
Jan 24
Last Quarter
Jan 30
New

Hourly Weather History & Observations

Time (EST) Temp. Windchill Dew Point Humidity Pressure Visibility Wind Dir Wind Speed Gust Speed Precip Events Conditions
12:53 AM 45.0 °F 40.1 °F 32.0 °F 60% 30.08 in - North 9.2 mph - N/A   Unknown
1:53 AM 43.0 °F 38.2 °F 30.9 °F 62% 30.09 in - NNW 8.1 mph - N/A   Unknown
2:53 AM 41.0 °F 34.7 °F 28.9 °F 62% 30.11 in - NW 10.4 mph 18.4 mph N/A   Unknown
3:53 AM 39.0 °F 30.3 °F 26.1 °F 60% 30.14 in - NNW 16.1 mph 25.3 mph N/A   Unknown
4:53 AM 37.0 °F 28.9 °F 26.1 °F 65% 30.15 in - North 12.7 mph 16.1 mph N/A   Unknown
5:53 AM 34.0 °F 26.6 °F 26.1 °F 73% 30.17 in - North 9.2 mph - N/A   Unknown
6:53 AM 32.0 °F 23.0 °F 23.0 °F 69% 30.21 in - North 11.5 mph 19.6 mph N/A   Unknown
7:53 AM 30.9 °F 20.2 °F 21.9 °F 69% 30.24 in - North 15.0 mph 24.2 mph N/A   Unknown
8:53 AM 33.1 °F 23.4 °F 21.9 °F 64% 30.27 in - North 13.8 mph 23.0 mph N/A   Unknown
9:53 AM 35.1 °F 24.5 °F 21.9 °F 59% 30.28 in - North 18.4 mph 26.5 mph N/A   Unknown
10:53 AM 37.9 °F 29.2 °F 19.9 °F 48% 30.29 in - NNE 15.0 mph 20.7 mph N/A   Unknown
11:53 AM 39.0 °F 31.0 °F 19.0 °F 45% 30.27 in - NNE 13.8 mph 21.9 mph N/A   Unknown
12:53 PM 43.0 °F 35.4 °F 19.9 °F 40% 30.25 in - NNE 16.1 mph 21.9 mph N/A   Unknown
1:53 PM 44.1 °F 37.7 °F 19.9 °F 38% 30.24 in - NE 12.7 mph 23.0 mph N/A   Unknown
2:53 PM 44.1 °F 38.1 °F 19.0 °F 37% 30.24 in - NE 11.5 mph 19.6 mph N/A   Unknown
3:53 PM 44.1 °F 39.5 °F 19.9 °F 38% 30.26 in - NE 8.1 mph - N/A   Unknown
4:53 PM 44.1 °F 40.1 °F 19.9 °F 38% 30.27 in - Variable 6.9 mph 16.1 mph N/A   Unknown
5:53 PM 39.0 °F 34.8 °F 23.0 °F 53% 30.29 in - NE 5.8 mph - N/A   Unknown
6:53 PM 36.0 °F 33.3 °F 24.1 °F 62% 30.32 in - NE 3.5 mph - N/A   Unknown
7:53 PM 35.1 °F 32.2 °F 23.0 °F 61% 30.35 in - NE 3.5 mph - N/A   Unknown
8:53 PM 35.1 °F 31.0 °F 23.0 °F 61% 30.37 in - East 4.6 mph - N/A   Unknown
9:53 PM 32.0 °F - 24.1 °F 73% 30.36 in - Calm Calm - N/A   Unknown
10:53 PM 30.0 °F 26.5 °F 24.1 °F 79% 30.35 in - NNE 3.5 mph - N/A   Unknown
11:53 PM 30.9 °F 25.2 °F 25.0 °F 79% 30.32 in - NE 5.8 mph - N/A   Unknown